Regional Weather Roundup
Issued by NWS Newport/Morehead, NC

Home | Current Version | Previous Version | Text Only | Print | Product List | Glossary On
Versions: 1 2 3 4 5 6 7 8 9 10 11 12 13 14 15 16 17 18 19 20 21 22 23 24 25 26 27 28 29 30 31 32 33 34 35 36 37 38 39 40 41 42 43 44 45 46 47 48 49 50
000
ASUS42 KMHX 281625
RWRMHX
WEATHER ROUNDUP FOR EASTERN NORTH CAROLINA
NATIONAL WEATHER SERVICE NEWPORT/MOREHEAD CITY NC
1200 PM EDT THU MAY 28 2015

NOTE: "FAIR" INDICATES FEW OR NO CLOUDS BELOW 12,000 FEET
WITH NO SIGNIFICANT WEATHER AND/OR OBSTRUCTIONS TO VISIBILITY

NCZ015>017-031-032-045>047-102-103-281700-
NORTH COAST

CITY           SKY/WX    TMP DP  RH WIND       PRES   REMARKS
EDENTON          N/A     80  68  67 SW6       30.24S
ELIZABETH CITY MOSUNNY   81  69  67 SW8       30.24S
KITTY HAWK     SUNNY     79  64  60 S6        30.24F
MANTEO         SUNNY     77  64  63 S16       30.26S

$$

NCZ045>047-081-094-103-104-281700-
CENTRAL COAST

CITY           SKY/WX    TMP DP  RH WIND       PRES   REMARKS
FRISCO         CLOUDY    78  60  53 S6        30.28S
SWANQUARTER      N/A     81 N/A N/A S8G14     30.24S

$$

NCZ095-097-098-100-101-281700-
SOUTHERN COAST

CITY           SKY/WX    TMP DP  RH WIND       PRES   REMARKS
BEAUFORT       SUNNY     78  64  61 SE10      30.26F
CEDAR ISLAND     N/A     77 N/A N/A SE12      30.30S
JACKSONVILLE   SUNNY     81  64  56 E8        30.25S
PINEY ISLAND   PTSUNNY  N/A N/A N/A SE8       30.26F
WILMINGTON     SUNNY     81  63  54 E5        30.25S


$$

NCZ011>013-027>030-043-044-078>080-089-090>093-098-281700-
COASTAL PLAIN

CITY           SKY/WX    TMP DP  RH WIND       PRES   REMARKS
AHOSKIE        CLOUDY    77  68  72 CALM      30.24S
CLINTON        MOSUNNY   81  70  69 SW3       30.25F
ELIZABETHTOWN  MOSUNNY   81  64  56 S6        30.24F
GOLDSBORO      PTSUNNY   81  67  62 CALM      30.22F
GREENVILLE     PTSUNNY   81  68  65 S3        30.24F
HAVELOCK       PTSUNNY   81  63  54 VRB6      30.26F
KENANSVILLE    MOSUNNY   80  64  56 W3        30.25F
KINSTON        PTSUNNY   81  66  61 SW5       30.25S
NEW BERN       CLOUDY    82  65  56 SE8       30.26F
RICHLANDS      PTSUNNY   82  64  54 S5        30.24F
ROCKY MOUNT    PTSUNNY   80  71  74 SW6       30.24S
WASHINGTON     MOSUNNY   79  67  65 SW3       30.24S
WHITEVILLE     MOSUNNY   81  65  58 E8        30.23F

$$

AMZ130-135-150-152-154-156-158-170-250-252-270-ANZ085-086-088-633-658-670-281700-
MARINE OBSERVATIONS

STATION/POSITION TIME  TEMP    WIND        PRES    WAVE   SWELL
                       AIR SEA DIR/SP/G            HT/PER HT/PER
                 (UTC) (F)     (DEG/KT/KT) (MB)    (FT/S) (FT/S)
CHESAPEAKE LIGHT 1600   68     180/ 23/ 23 1023.6
64 E VA BEACH    1550   67 64  170/  8/ 10 1024.4    3/ 8   3/ 8
DUCK             1600   70 54  140/ 13/ 14 1023.1
2 E DUCK         1511      60                N/A     2/ 8
OREGON INLET     1600   75 76  180/ 10/ 12 1024.9
13E OREGON INLT  1600      71                N/A     3/ 8
HATTERAS CG      1600   77 74  160/  6/  8 1024.6
DIAMOND BUOY     1550   75 78  160/  6/  8 1025.3    3/ 7   3/ 7
CAPE LOOKOUT     1600   74     130/  7/  7 1024.7
BEAUFORT LAB     1600   76 75  180/  8/ 11 1024.0
27 SE WRIGHTSVLE 1600      76  110/  4/  6   N/A
5 SE WRIGHTSVLE  1508   76 77  140/  4/  6 1024.7
225 S CAPE HAT   1550   74 74   50/ 12/ 14 1023.7    5/ 8   5/ 8
41 SE CHARLESTON 1550   76 78  100/  6/  8 1023.6    3/ 8   3/ 8

$$


USA.gov is the U.S. government's official web portal to all federal, state and local government web resources and services.